| time (UTC) | temp F | wind direction | speed knots | gust knots | rain 1hr in | rain 24hr in | rain mn in | humidity % | barometer mb |
| 20260508063520 | 60 | 153 | 1.7 | 3.5 | 0.00 | 0.04 | 0.04 | 90 | 1014.8 |
| 20260508062536 | 59 | 108 | 1.7 | 3.5 | 0.00 | 0.04 | 0.04 | 90 | 1014.8 |
| 20260508061533 | 59 | 149 | 1.7 | 3.5 | 0.00 | 0.04 | 0.04 | 91 | 1014.8 |
| 20260508060548 | 59 | 126 | 1.7 | 3.5 | 0.00 | 0.04 | 0.04 | 90 | 1014.7 |
| 20260508055524 | 59 | 103 | 0.9 | 1.7 | 0.00 | 0.04 | 0.04 | 91 | 1014.7 |
| 20260508054520 | 58 | 129 | 0.9 | 2.6 | 0.00 | 0.04 | 0.04 | 91 | 1014.7 |
| 20260508053516 | 58 | 131 | 0.9 | 2.6 | 0.00 | 0.04 | 0.04 | 92 | 1014.7 |
| 20260508052533 | 57 | 136 | 0.9 | 2.6 | 0.00 | 0.04 | 0.04 | 93 | 1014.7 |
| 20260508051549 | 57 | 110 | 0.9 | 2.6 | 0.00 | 0.04 | 0.04 | 93 | 1014.6 |
| 20260508050525 | 56 | 78 | 1.7 | 3.5 | 0.00 | 0.04 | 0.04 | 93 | 1014.8 |
| 20260508045541 | 56 | 158 | 0.9 | 1.7 | 0.00 | 0.04 | 0.04 | 93 | 1014.7 |
| 20260508044517 | 56 | 120 | 1.7 | 4.3 | 0.00 | 0.04 | 0.04 | 94 | 1014.6 |
| 20260508043613 | 55 | 111 | 1.7 | 3.5 | 0.01 | 0.04 | 0.04 | 94 | 1014.7 |
| 20260508042530 | 55 | 96 | 1.7 | 3.5 | 0.01 | 0.04 | 0.04 | 94 | 1014.7 |
| 20260508041546 | 55 | 110 | 3.5 | 4.3 | 0.01 | 0.04 | 0.04 | 94 | 1014.7 |
| 20260508040522 | 55 | 58 | 1.7 | 2.6 | 0.01 | 0.04 | 0.04 | 93 | 1014.6 |
| 20260508035517 | 55 | 102 | 1.7 | 2.6 | 0.01 | 0.04 | 0.04 | 93 | 1014.4 |
| 20260508034536 | 55 | 62 | 1.7 | 4.3 | 0.01 | 0.04 | 0.04 | 93 | 1014.5 |
| 20260508033530 | 55 | 185 | 1.7 | 2.6 | 0.02 | 0.04 | 0.04 | 92 | 1014.3 |
| 20260508032526 | 55 | 167 | 3.5 | 5.2 | 0.02 | 0.04 | 0.04 | 92 | 1014.2 |
| 20260508031523 | 55 | 150 | 1.7 | 3.5 | 0.03 | 0.04 | 0.04 | 92 | 1014.2 |
| 20260508030518 | 55 | 105 | 1.7 | 2.6 | 0.04 | 0.04 | 0.04 | 92 | 1014.2 |
| 20260508025535 | 55 | 164 | 1.7 | 3.5 | 0.04 | 0.04 | 0.04 | 92 | 1014.2 |
| 20260508024530 | 55 | 153 | 0.9 | 2.6 | 0.03 | 0.03 | 0.03 | 91 | 1014.2 |
| 20260508023532 | 55 | 120 | 0.9 | 1.7 | 0.02 | 0.02 | 0.02 | 90 | 1014.3 |
| 20260508022523 | 55 | 123 | 0.9 | 1.7 | 0.02 | 0.02 | 0.02 | 89 | 1014.2 |
| 20260508021540 | 55 | 112 | 0.9 | 1.7 | 0.00 | 0.00 | 0.00 | 88 | 1014.2 |
| 20260508020555 | 55 | 115 | 0.9 | 1.7 | 0.00 | 0.00 | 0.00 | 87 | 1014.0 |
| 20260508015531 | 55 | 113 | 0.9 | 1.7 | 0.00 | 0.00 | 0.00 | 87 | 1014.1 |
| 20260508014527 | 55 | 127 | 0.9 | 1.7 | 0.00 | 0.00 | 0.00 | 86 | 1014.1 |
| 20260508013524 | 55 | 67 | 0.0 | 1.7 | 0.00 | 0.00 | 0.00 | 86 | 1014.0 |
| 20260508012521 | 56 | 79 | 1.7 | 2.6 | 0.00 | 0.00 | 0.00 | 86 | 1014.2 |
| 20260508011516 | 56 | 69 | 0.0 | 1.7 | 0.00 | 0.00 | 0.00 | 85 | 1014.1 |
| 20260508010531 | 56 | 87 | 1.7 | 2.6 | 0.00 | 0.00 | 0.00 | 85 | 1014.1 |
| 20260508005527 | 56 | 146 | 1.7 | 3.5 | 0.00 | 0.00 | 0.00 | 84 | 1014.3 |
| 20260508004544 | 56 | 109 | 1.7 | 2.6 | 0.00 | 0.00 | 0.00 | 84 | 1014.0 |
| 20260508003519 | 56 | 99 | 0.9 | 2.6 | 0.00 | 0.00 | 0.00 | 84 | 1014.1 |
| 20260508002516 | 56 | 99 | 1.7 | 2.6 | 0.00 | 0.00 | 0.00 | 84 | 1013.8 |
| 20260508001551 | 56 | 92 | 1.7 | 1.7 | 0.00 | 0.00 | 0.00 | 84 | 1014.0 |
| 20260508000547 | 56 | 132 | 0.9 | 2.6 | 0.00 | 0.00 | 0.00 | 83 | 1014.1 |
| 20260507235523 | 56 | 133 | 1.7 | 2.6 | 0.00 | 0.00 | 0.00 | 83 | 1013.9 |
| 20260507234519 | 56 | 120 | 1.7 | 1.7 | 0.00 | 0.00 | 0.00 | 83 | 1013.9 |
| 20260507233535 | 56 | 120 | 1.7 | 2.6 | 0.00 | 0.00 | 0.00 | 82 | 1014.0 |
| 20260507232530 | 56 | 122 | 1.7 | 1.7 | 0.00 | 0.00 | 0.00 | 82 | 1013.9 |
| 20260507231527 | 56 | 105 | 1.7 | 2.6 | 0.00 | 0.00 | 0.00 | 81 | 1013.9 |
| 20260507230524 | 56 | 138 | 0.9 | 2.6 | 0.00 | 0.00 | 0.00 | 80 | 1013.9 |
| 20260507225519 | 57 | 104 | 1.7 | 2.6 | 0.00 | 0.00 | 0.00 | 79 | 1014.0 |
| 20260507224536 | 57 | 135 | 1.7 | 2.6 | 0.00 | 0.00 | 0.00 | 79 | 1013.9 |
| 20260507223552 | 57 | 123 | 1.7 | 1.7 | 0.00 | 0.00 | 0.00 | 78 | 1013.8 |
| 20260507222527 | 57 | 128 | 1.7 | 1.7 | 0.00 | 0.00 | 0.00 | 77 | 1014.0 |
| 20260507221523 | 58 | 147 | 1.7 | 2.6 | 0.00 | 0.00 | 0.00 | 77 | 1014.1 |
| 20260507220520 | 57 | 121 | 0.9 | 1.7 | 0.00 | 0.00 | 0.00 | 76 | 1014.0 |
| 20260507215516 | 58 | 140 | 0.9 | 1.7 | 0.00 | 0.00 | 0.00 | 75 | 1013.9 |
| 20260507214533 | 59 | 137 | 1.7 | 2.6 | 0.00 | 0.00 | 0.00 | 74 | 1013.8 |
| 20260507213529 | 59 | 138 | 1.7 | 2.6 | 0.00 | 0.00 | 0.00 | 73 | 1013.8 |
| 20260507212525 | 60 | 149 | 1.7 | 3.5 | 0.00 | 0.00 | 0.00 | 72 | 1013.7 |
| 20260507211521 | 60 | 152 | 2.6 | 5.2 | 0.00 | 0.00 | 0.00 | 70 | 1013.6 |
| 20260507210557 | 60 | 152 | 1.7 | 5.2 | 0.00 | 0.00 | 0.00 | 70 | 1013.5 |
| 20260507205534 | 61 | 139 | 1.7 | 3.5 | 0.00 | 0.00 | 0.00 | 69 | 1013.5 |
| 20260507204531 | 61 | 158 | 2.6 | 5.2 | 0.00 | 0.00 | 0.00 | 68 | 1013.5 |
| 20260507203526 | 61 | 133 | 1.7 | 2.6 | 0.00 | 0.00 | 0.00 | 69 | 1013.7 |
| 20260507202523 | 61 | 140 | 1.7 | 2.6 | 0.00 | 0.00 | 0.00 | 69 | 1013.5 |
| 20260507201519 | 61 | 130 | 1.7 | 2.6 | 0.00 | 0.00 | 0.00 | 68 | 1013.5 |
| 20260507200555 | 61 | 113 | 0.9 | 2.6 | 0.00 | 0.00 | 0.00 | 68 | 1013.6 |
| 20260507195532 | 62 | 121 | 0.9 | 1.7 | 0.00 | 0.00 | 0.00 | 66 | 1013.6 |
| 20260507194528 | 63 | 135 | 0.9 | 1.7 | 0.00 | 0.00 | 0.00 | 65 | 1013.6 |
| 20260507193524 | 64 | 112 | 0.9 | 2.6 | 0.00 | 0.00 | 0.00 | 63 | 1013.8 |
| 20260507192519 | 64 | 145 | 1.7 | 3.5 | 0.00 | 0.00 | 0.00 | 61 | 1013.8 |
| 20260507191516 | 65 | 153 | 1.7 | 3.5 | 0.00 | 0.00 | 0.00 | 60 | 1013.7 |
| 20260507190553 | 66 | 170 | 2.6 | 3.5 | 0.00 | 0.00 | 0.00 | 59 | 1013.6 |
| 20260507185554 | 67 | 169 | 1.7 | 5.2 | 0.00 | 0.00 | 0.00 | 57 | 1013.5 |
| 20260507184525 | 67 | 165 | 2.6 | 4.3 | 0.00 | 0.00 | 0.00 | 57 | 1013.4 |
| 20260507183521 | 67 | 169 | 2.6 | 5.2 | 0.00 | 0.00 | 0.00 | 56 | 1013.4 |
| 20260507182517 | 68 | 161 | 1.7 | 3.5 | 0.00 | 0.00 | 0.00 | 56 | 1013.4 |
| 20260507181538 | 68 | 169 | 1.7 | 4.3 | 0.00 | 0.00 | 0.00 | 55 | 1013.4 |
| 20260507180530 | 68 | 169 | 1.7 | 5.2 | 0.00 | 0.00 | 0.00 | 55 | 1013.4 |
| 20260507175526 | 69 | 157 | 1.7 | 4.3 | 0.00 | 0.00 | 0.00 | 53 | 1013.2 |
| 20260507174542 | 70 | 185 | 3.5 | 5.2 | 0.00 | 0.00 | 0.00 | 52 | 1013.3 |
| 20260507173518 | 70 | 190 | 4.3 | 7.0 | 0.00 | 0.00 | 0.00 | 52 | 1013.2 |
| 20260507172535 | 70 | 185 | 2.6 | 5.2 | 0.00 | 0.00 | 0.00 | 52 | 1013.1 |
| 20260507171536 | 71 | 174 | 1.7 | 3.5 | 0.00 | 0.00 | 0.00 | 52 | 1012.9 |
| 20260507170527 | 71 | 177 | 0.9 | 1.7 | 0.00 | 0.00 | 0.00 | 53 | 1013.1 |
| 20260507165523 | 72 | 236 | 0.0 | 1.7 | 0.00 | 0.00 | 0.00 | 51 | 1012.9 |
| 20260507164520 | 72 | 180 | 0.9 | 2.6 | 0.00 | 0.00 | 0.00 | 50 | 1012.7 |
| 20260507163535 | 72 | 158 | 0.9 | 2.6 | 0.00 | 0.00 | 0.00 | 49 | 1012.5 |
| 20260507162532 | 73 | 173 | 1.7 | 3.5 | 0.00 | 0.00 | 0.00 | 48 | 1012.4 |
| 20260507161528 | 73 | 174 | 1.7 | 3.5 | 0.00 | 0.00 | 0.00 | 47 | 1012.4 |
| 20260507160544 | 74 | 167 | 1.7 | 3.5 | 0.00 | 0.00 | 0.00 | 46 | 1012.4 |
| 20260507155540 | 74 | 180 | 2.6 | 5.2 | 0.00 | 0.00 | 0.00 | 45 | 1012.3 |
| 20260507154536 | 75 | 173 | 1.7 | 5.2 | 0.00 | 0.00 | 0.00 | 44 | 1012.2 |
| 20260507153532 | 76 | 173 | 3.5 | 8.7 | 0.00 | 0.00 | 0.00 | 44 | 1012.2 |
| 20260507152529 | 78 | 174 | 2.6 | 5.2 | 0.00 | 0.00 | 0.00 | 42 | 1012.2 |
| 20260507151546 | 78 | 173 | 2.6 | 8.7 | 0.00 | 0.00 | 0.00 | 42 | 1012.2 |
| 20260507150602 | 78 | 176 | 3.5 | 10.4 | 0.00 | 0.00 | 0.00 | 42 | 1012.2 |
| 20260507145519 | 78 | 161 | 2.6 | 5.2 | 0.00 | 0.00 | 0.00 | 43 | 1012.2 |
| 20260507144556 | 77 | 172 | 2.6 | 5.2 | 0.00 | 0.00 | 0.00 | 43 | 1012.2 |
| 20260507143550 | 77 | 175 | 3.5 | 7.8 | 0.00 | 0.00 | 0.00 | 43 | 1012.2 |
| 20260507142526 | 78 | 171 | 3.5 | 9.6 | 0.00 | 0.00 | 0.00 | 42 | 1012.1 |
| 20260507141522 | 78 | 167 | 1.7 | 5.2 | 0.00 | 0.00 | 0.00 | 42 | 1012.0 |
| 20260507140519 | 78 | 176 | 3.5 | 9.6 | 0.00 | 0.00 | 0.00 | 42 | 1011.9 |
| 20260507135556 | 79 | 179 | 2.6 | 5.2 | 0.00 | 0.00 | 0.00 | 42 | 1012.0 |
| 20260507134531 | 79 | 163 | 3.5 | 10.4 | 0.00 | 0.00 | 0.00 | 41 | 1012.1 |
| 20260507133527 | 79 | 174 | 2.6 | 5.2 | 0.00 | 0.00 | 0.00 | 41 | 1012.1 |
| 20260507132524 | 79 | 172 | 3.5 | 7.0 | 0.00 | 0.00 | 0.00 | 41 | 1012.1 |
| 20260507131520 | 79 | 178 | 3.5 | 7.8 | 0.00 | 0.00 | 0.00 | 41 | 1012.1 |
| 20260507130537 | 79 | 178 | 3.5 | 13.0 | 0.00 | 0.00 | 0.00 | 41 | 1012.2 |
| 20260507125553 | 79 | 178 | 3.5 | 7.8 | 0.00 | 0.00 | 0.00 | 41 | 1012.4 |
| 20260507124534 | 79 | 178 | 2.6 | 7.0 | 0.00 | 0.00 | 0.00 | 41 | 1012.5 |
| 20260507123523 | 79 | 178 | 3.5 | 9.6 | 0.00 | 0.00 | 0.00 | 42 | 1012.6 |
| 20260507122520 | 79 | 180 | 4.3 | 11.3 | 0.00 | 0.00 | 0.00 | 42 | 1012.7 |
| 20260507121516 | 79 | 177 | 3.5 | 10.4 | 0.00 | 0.00 | 0.00 | 42 | 1012.7 |
| 20260507120533 | 80 | 173 | 3.5 | 11.3 | 0.00 | 0.00 | 0.00 | 42 | 1012.7 |
| 20260507115529 | 80 | 178 | 3.5 | 9.6 | 0.00 | 0.00 | 0.00 | 43 | 1012.7 |
| 20260507114525 | 79 | 179 | 3.5 | 10.4 | 0.00 | 0.00 | 0.00 | 44 | 1013.0 |
| 20260507113521 | 79 | 176 | 2.6 | 10.4 | 0.00 | 0.00 | 0.00 | 44 | 1013.0 |
| 20260507112517 | 79 | 185 | 2.6 | 7.0 | 0.00 | 0.00 | 0.00 | 44 | 1013.2 |
| 20260507111534 | 79 | 191 | 3.5 | 13.9 | 0.00 | 0.00 | 0.00 | 44 | 1013.4 |
| 20260507110530 | 80 | 190 | 3.5 | 7.8 | 0.00 | 0.00 | 0.00 | 44 | 1013.4 |
| 20260507105526 | 79 | 150 | 1.7 | 5.2 | 0.00 | 0.00 | 0.00 | 46 | 1013.5 |
| 20260507104522 | 79 | 171 | 1.7 | 5.2 | 0.00 | 0.00 | 0.00 | 46 | 1013.6 |
| 20260507103519 | 79 | 189 | 2.6 | 6.1 | 0.00 | 0.00 | 0.00 | 46 | 1013.7 |
| 20260507102535 | 79 | 191 | 1.7 | 5.2 | 0.00 | 0.00 | 0.00 | 46 | 1013.7 |
| 20260507101532 | 78 | 169 | 1.7 | 5.2 | 0.00 | 0.00 | 0.00 | 47 | 1013.9 |
| 20260507100528 | 77 | 188 | 2.6 | 8.7 | 0.00 | 0.00 | 0.00 | 46 | 1014.1 |
| 20260507095523 | 77 | 183 | 2.6 | 7.0 | 0.00 | 0.00 | 0.00 | 47 | 1014.1 |
| 20260507094521 | 77 | 193 | 1.7 | 4.3 | 0.00 | 0.00 | 0.00 | 48 | 1014.2 |
| 20260507093517 | 76 | 168 | 1.7 | 3.5 | 0.00 | 0.00 | 0.00 | 48 | 1014.2 |
| 20260507092533 | 76 | 198 | 1.7 | 5.2 | 0.00 | 0.00 | 0.00 | 49 | 1014.3 |
| 20260507091529 | 76 | 168 | 1.7 | 5.2 | 0.00 | 0.00 | 0.00 | 48 | 1014.4 |
| 20260507090526 | 74 | 181 | 2.6 | 6.1 | 0.00 | 0.00 | 0.00 | 50 | 1014.4 |
| 20260507085526 | 74 | 173 | 2.6 | 7.0 | 0.00 | 0.00 | 0.00 | 51 | 1014.5 |
| 20260507084517 | 72 | 179 | 2.6 | 5.2 | 0.00 | 0.00 | 0.00 | 52 | 1014.6 |
| 20260507083553 | 72 | 190 | 2.6 | 7.8 | 0.00 | 0.00 | 0.00 | 52 | 1014.6 |
| 20260507082550 | 72 | 196 | 3.5 | 7.8 | 0.00 | 0.00 | 0.00 | 52 | 1014.5 |
| 20260507081527 | 72 | 174 | 2.6 | 5.2 | 0.00 | 0.00 | 0.00 | 53 | 1014.4 |
| 20260507080522 | 71 | 187 | 3.5 | 8.7 | 0.00 | 0.00 | 0.00 | 53 | 1014.4 |
| 20260507075518 | 70 | 177 | 2.6 | 5.2 | 0.00 | 0.00 | 0.00 | 55 | 1014.5 |
| 20260507074534 | 70 | 165 | 1.7 | 3.5 | 0.00 | 0.00 | 0.00 | 55 | 1014.5 |
| 20260507073531 | 70 | 159 | 1.7 | 5.2 | 0.00 | 0.00 | 0.00 | 53 | 1014.6 |
| 20260507072527 | 69 | 171 | 3.5 | 5.2 | 0.00 | 0.00 | 0.00 | 56 | 1014.7 |
| 20260507071523 | 68 | 164 | 1.7 | 5.2 | 0.00 | 0.00 | 0.00 | 56 | 1014.7 |
| 20260507070525 | 67 | 180 | 2.6 | 5.2 | 0.00 | 0.00 | 0.00 | 58 | 1014.7 |
| 20260507065555 | 67 | 176 | 3.5 | 7.8 | 0.00 | 0.00 | 0.00 | 58 | 1014.6 |
| 20260507064532 | 65 | 177 | 2.6 | 5.2 | 0.00 | 0.00 | 0.00 | 60 | 1014.7 |